Torna al catalogo

STARLINK-4484

AttivoComunicazioniVLEO
NORAD 53417·PAYLOAD·🇺🇸 United States

Lanciato Aug 10, 2022 da Cape Canaveral Space Force Station

Loading…

Prossimi Passaggi (prossime 24 ore)

TLE

AggiornatoSource: CelesTrak SupGP

Epoca: Sep 14, 2026, 21:28 UTC

1 53417C 22097AF  26257.89493056  .00256790  00000+0  10955-1 0  2572
2 53417  53.1606 343.1256 0001341  75.9237 215.8124 15.22265110    18

Traccia STARLINK-4484 in tempo reale con AllMySat

Download on the App Store